Flag for China Weather past 2 weeks in Lanchow, Gansu, China

Now
50 °F

Clear.


Feels Like: 48 °F
Forecast: 46 / 69 °F
Wind: 6 mph from Northwest

Location: Lanzhou / Zhongchuan

Current Time: Oct 2, 2014 at 11:46:53 PM

Latest Report: Oct 2, 2014 at 11:00 PM


Visibility: 10 mi

Pressure: 30.12 "Hg

Humidity: 76%

Dew point: 43 °F

Location of LanchowLocation

Historic Weather in Lanchow — Graph

°F

Lanchow temperature yesterday

Maximum temperature yesterday: 61 °F (at 2:00 PM)
Minimum temperature yesterday: 46 °F (at 6:00 AM)
Average temperature yesterday: 53 °F

Past Weeks' High & Low Weather Summary

 TemperatureHumidityPressure
High75 °F (Sep 18, 4:00 PM)100% (Sep 18, 4:00 AM)30.30 "Hg (Sep 18, 4:00 AM)
Low41 °F (Sep 24, 5:00 AM)31% (Sep 19, 3:00 PM)29.89 "Hg (Sep 25, 3:00 PM)
Average54 °F77%30.14 "Hg
* Reported Sep 17 10:00 PM — Oct 2 10:00 PM, Lanchow, Weather by CustomWeather, © 2014

Note: Actual official high and low records may vary slightly from our data, if they occured in-between our weather recording intervals... More about our weather records

Advertising

Lanchow weather history for previous 24 hours

 ConditionsComfort  
Time TempWeatherWind HumidityBarometerVisibility
10:00 PM
Oct 2
52 °FClear.1 mph72%30.12 "Hg10 mi
9:00 PM54 °FPassing clouds.3 mph63%30.09 "HgN/A
8:00 PM55 °FThunderstorms. Passing clouds.17 mph55%30.12 "HgN/A
7:00 PM63 °FPassing clouds.3 mph56%30.07 "HgN/A
6:00 PM66 °FPassing clouds.3 mph43%30.04 "HgN/A
5:00 PM68 °FPassing clouds.6 mph38%30.04 "HgN/A
4:00 PM68 °FPassing clouds.6 mph43%30.04 "HgN/A
3:00 PM66 °FPassing clouds.6 mph46%30.07 "HgN/A
2:00 PM66 °FSunny.3 mph49%30.09 "Hg10 mi
1:00 PM64 °FPassing clouds.6 mph52%30.15 "HgN/A
12:00 PM63 °FPassing clouds.6 mph59%30.18 "HgN/A
11:00 AM61 °FPassing clouds.6 mph59%30.18 "HgN/A
10:00 AM57 °FPassing clouds.3 mph67%30.21 "HgN/A
9:00 AM52 °FClear.1 mph77%30.21 "Hg5 mi
8:00 AM45 °FClear.1 mph93%30.21 "Hg5 mi
7:00 AM43 °FClear.No wind93%30.21 "Hg5 mi
6:00 AM45 °FClear.6 mph93%30.21 "Hg5 mi
5:00 AM45 °FClear.3 mph93%30.18 "Hg4 mi
4:00 AM46 °FClear.3 mph93%30.21 "Hg4 mi
3:00 AM48 °FClear.6 mph87%30.21 "Hg4 mi
2:00 AM46 °FClear.6 mph93%30.21 "Hg4 mi
1:00 AM45 °FClear.6 mph93%30.21 "Hg4 mi
12:00 AM46 °FClear.6 mph93%30.24 "Hg4 mi
11:00 PM
Oct 1
48 °FClear.3 mph87%30.24 "Hg4 mi
Weather by CustomWeather, © 2014

See weather overviewHow to use our weather pages